Home > Weather > Södertälje > Past weeks

Flag for Sweden Weather for the Past 2 Weeks in Södertälje, Sweden

Now
43 °F

Sunny.


Feels Like: 38 °F
Forecast: 38 / 56 °F
Wind: 8 mph from Southeast

Location: Stockholm Bromma Airport

Current Time: Apr 30, 2016 at 8:30:10 AM

Latest Report: Apr 30, 2016 at 7:50 AM


Visibility: 10 mi

Pressure: 30.33 "Hg

Humidity: 81%

Dew Point: 37 °F

Location of SödertäljeLocation

Historic Weather in Södertälje — Graph

°F

Södertälje Temperature Yesterday

Maximum temperature yesterday: 52 °F (at 2:50 PM)
Minimum temperature yesterday: 39 °F (at 12:20 AM)
Average temperature yesterday: 45 °F

High & Low Weather Summary for the Past Weeks

 TemperatureHumidityPressure
High55 °F (Apr 21, 2:20 PM)100% (Apr 16, 4:20 PM)30.33 "Hg (Apr 16, 4:20 PM)
Low28 °F (Apr 26, 3:20 AM)26% (Apr 20, 4:50 PM)29.42 "Hg (Apr 17, 2:20 PM)
Average42 °F74%29.74 "Hg
* Reported Apr 15 7:20 AM — Apr 30 7:20 AM, Södertälje, Weather by CustomWeather, © 2016

Note: Actual official high and low records may vary slightly from our data, if they occured in-between our weather recording intervals... More about our weather records

Advertising

Södertälje Weather History for the Previous 24 Hours

Scroll right to see more
 ConditionsComfort  
Time TempWeatherWind HumidityBarometerVisibility
7:20 AM
Sat, Apr 30
41 °FQuite cool.8 mph87%30.33 "HgN/A
6:20 AM39 °FScattered clouds.10 mph93%30.33 "HgN/A
5:50 AM37 °FPartly sunny.8 mph100%30.33 "HgN/A
5:20 AM37 °FChilly.6 mph93%30.30 "Hg4 mi
4:20 AM37 °FChilly.6 mph93%30.30 "HgN/A
3:50 AM37 °FChilly.8 mph93%30.30 "HgN/A
3:20 AM37 °FChilly.8 mph87%30.30 "HgN/A
2:50 AM37 °FChilly.6 mph93%30.30 "HgN/A
2:20 AM39 °FChilly.7 mph81%30.30 "HgN/A
1:50 AM39 °FChilly.6 mph87%30.30 "HgN/A
1:20 AM37 °FChilly.7 mph93%30.30 "HgN/A
12:50 AM37 °FChilly.6 mph93%30.30 "HgN/A
12:20 AM39 °FChilly.5 mph87%30.30 "HgN/A
11:50 PM
Fri, Apr 29
39 °FChilly.6 mph81%30.27 "HgN/A
11:20 PM39 °FChilly.5 mph81%30.27 "HgN/A
10:50 PM41 °FQuite cool.6 mph76%30.27 "HgN/A
10:20 PM41 °FQuite cool.5 mph76%30.27 "HgN/A
9:50 PM43 °FClear.6 mph71%30.27 "Hg10 mi
9:20 PM43 °FPassing clouds.6 mph71%30.27 "HgN/A
8:50 PM45 °FSunny.9 mph66%30.27 "Hg10 mi
8:20 PM45 °FSunny.10 mph71%30.24 "Hg10 mi
7:50 PM46 °FSunny.14 mph62%30.24 "Hg10 mi
7:20 PM48 °FSunny.10 mph58%30.21 "Hg10 mi
6:50 PM48 °FPassing clouds.8 mph58%30.21 "HgN/A
6:20 PM48 °FPassing clouds.12 mph58%30.21 "HgN/A
5:50 PM48 °FPassing clouds.16 mph54%30.21 "HgN/A
5:20 PM50 °FPassing clouds.14 mph58%30.18 "HgN/A
4:50 PM50 °FPassing clouds.9 mph54%30.18 "HgN/A
4:20 PM52 °FScattered clouds.13 mph54%30.18 "HgN/A
3:50 PM52 °FPassing clouds.10 mph54%30.18 "HgN/A
3:20 PM52 °FScattered clouds.13 mph47%30.15 "HgN/A
2:50 PM52 °FScattered clouds.12 mph50%30.15 "HgN/A
2:20 PM50 °FScattered clouds.13 mph58%30.15 "HgN/A
1:50 PM48 °FScattered clouds.14 mph58%30.12 "HgN/A
1:20 PM48 °FScattered clouds.16 mph58%30.12 "HgN/A
12:50 PM50 °FPartly sunny.15 mph58%30.12 "HgN/A
12:20 PM50 °FBroken clouds.13 mph62%30.09 "HgN/A
11:50 AM48 °FPartly sunny.14 mph71%30.09 "HgN/A
11:20 AM46 °FPartly sunny.14 mph71%30.09 "HgN/A
10:50 AM46 °FBroken clouds.15 mph71%30.07 "HgN/A
10:20 AM45 °FMostly cloudy.14 mph76%30.07 "HgN/A
9:50 AM45 °FPartly sunny.13 mph76%30.04 "HgN/A
9:20 AM45 °FPartly sunny.10 mph76%30.04 "HgN/A
8:20 AM43 °FPartly sunny.10 mph81%30.01 "HgN/A
Weather by CustomWeather, © 2016

See weather overviewHow to use our weather pages